AirNav   Everest Fuels
 
 1158 users online  

1G5 Medina Municipal Airport
Medina, Ohio, USA

GOING TO MEDINA?


FAA INFORMATION EFFECTIVE 16 JUNE 2022

Location

FAA Identifier: 1G5
Lat/Long: 41-07-53.2000N 081-45-53.6000W
41-07.886667N 081-45.893333W
41.1314444,-81.7648889
(estimated)
Elevation: 1189.8 ft. / 362.7 m (surveyed)
Variation: 07W (1990)
From city: 4 miles E of MEDINA, OH
Time zone: UTC -4 (UTC -5 during Standard Time)
Zip code: 44256

Airport Operations

Airport use: Open to the public
Control tower: no
ARTCC: CLEVELAND CENTER
FSS: CLEVELAND FLIGHT SERVICE STATION
NOTAMs facility: CLE (NOTAM-D service available)
Attendance: APR-OCT 0800-2000, NOV-MAR 0800-1700
Wind indicator: lighted
Segmented circle: yes
Lights: ACTVT REIL RWY 27; PAPI RWY 01, 19, & 27; MIRL RWY 01/19 & 09/27 - CTAF. PAPI RWY 01, 19, & 27 OPR CONSLY DUSK-2200.
Beacon: white-green (lighted land airport)
Operates sunset to sunrise.

Airport Communications

CTAF/UNICOM: 123.0
CLEVELAND APPROACH: 125.35
CLEVELAND DEPARTURE: 125.35
WX ASOS at AKR (15 nm SE): 126.825 (330-724-4237)
WX AWOS-2 at 1G3 (16 nm E): 119.15 (330-346-1497)
WX ASOS at BJJ (16 nm S): 118.075 (330-669-9105)
WX ASOS at CLE (17 nm N): PHONE 216-416-2729
WX ASOS at CAK (19 nm SE): PHONE 330-493-5260

Airport Services

Fuel available: 100LL JET-A+
100LL:AVBL H24 SELF SER.
Parking: hangars and tiedowns
Airframe service: MAJOR
Powerplant service: MAJOR

Runway Information

Runway 9/27

Dimensions: 3556 x 75 ft. / 1084 x 23 m
Surface: asphalt, in good condition
Weight bearing capacity: 
Single wheel: 30.0
Runway edge lights: medium intensity
RUNWAY 9  RUNWAY 27
Latitude: 41-07.881618N41-07.946467N
Longitude: 081-46.425062W081-45.655383W
Elevation: 1168.8 ft.1182.8 ft.
Traffic pattern: leftleft
Runway heading: 091 magnetic, 084 true271 magnetic, 264 true
Markings: nonprecision, in good conditionnonprecision, in good condition
Visual slope indicator: 4-light PAPI on left (3.00 degrees glide path)
U/S INDEFLY.
4-light PAPI on left (3.50 degrees glide path)
Runway end identifier lights: yes
Touchdown point: yes, no lightsyes, no lights
Obstructions: 20 ft. tree, 478 ft. from runway, 36 ft. right of centerline, 13:1 slope to clear
+4-6 FT BRUSH, 100-200 FT DIST, 180-200 FT R.
none

Runway 1/19

Dimensions: 2868 x 60 ft. / 874 x 18 m
Surface: asphalt, in fair condition
Weight bearing capacity: 
Single wheel: 25.0
Runway edge lights: medium intensity
RUNWAY 1  RUNWAY 19
Latitude: 41-07.616738N41-08.088963N
Longitude: 081-45.718333W081-45.707340W
Elevation: 1170.1 ft.1189.8 ft.
Traffic pattern: leftleft
Runway heading: 008 magnetic, 001 true188 magnetic, 181 true
Displaced threshold: no737 ft.
Markings: basic, in good conditionbasic, in good condition
Visual slope indicator: 4-light PAPI on left (3.00 degrees glide path)4-light PAPI on left (4.00 degrees glide path)
Touchdown point: yes, no lightsyes, no lights
Obstructions: 15 ft. pline, marked, 450 ft. from runway, 16:1 slope to clear71 ft. trees, 610 ft. from runway, 175 ft. left of centerline, 5:1 slope to clear
APCH SLP 16:1 DUE TO +71 FT TREE, 1347 FT FM DTHR.

Airport Ownership and Management from official FAA records

Ownership: Publicly-owned
Owner: CITY OF MEDINA
PO BOX 703
MEDINA, OH 44258-0703
Phone 330-725-8861
Manager: GREG HUBER
PO BOX 703
MEDINA, OH 44258-0703
Phone 330-239-1606

Airport Operational Statistics

Aircraft based on the field: 50
Single engine airplanes: 45
Multi engine airplanes: 3
Helicopters: 2
    
Aircraft operations: avg 218/day *
69% local general aviation
29% transient general aviation
2% air taxi
<1% military
* for 12-month period ending 23 September 2020

Additional Remarks

DEER, BIRDS, & OTR WILDLIFE ON & INVOF ARPT.
FOR CD CTC CLEVELAND APCH AT 216-352-2323.
NOISE-SENSITIVE RES & LIVESTOCK AREA INVOF ARPT, DEPS RCMDD TO FLY RWY HDG TIL RCHG TPA.

Instrument Procedures

NOTE: All procedures below are presented as PDF files. If you need a reader for these files, you should download the free Adobe Reader.

NOT FOR NAVIGATION. Please procure official charts for flight.
FAA instrument procedures published for use from 16 June 2022 at 0901Z to 14 July 2022 at 0900z.

 
IAPs - Instrument Approach Procedures
RNAV (GPS) RWY 09   download (169KB)
RNAV (GPS) RWY 27   download (171KB)
VOR RWY 27   download (199KB)
NOTE: Special Take-Off Minimums/Departure Procedures apply   download (164KB)

Other nearby airports with instrument procedures:

3G3 - Wadsworth Municipal Airport (8 nm S)
KAKR - Akron Fulton International Airport (15 nm SE)
1G3 - Kent State University Airport (16 nm E)
KBJJ - Wayne County Airport (16 nm S)
KCLE - Cleveland-Hopkins International Airport (17 nm N)
1G1 - Elyria Airport (19 nm NW)
KCAK - Akron-Canton Regional Airport (19 nm SE)
 
Loc | Ops | Rwys | IFR | FBO | Links
Com | Nav | Svcs | Stats | Notes
Area around 1G5 (Medina Municipal Airport)
 
Road maps at: MapQuest Bing Google
 
Aerial photo
WARNING: Photo may not be current or correct
Aerial photo of 1G5 (Medina Municipal Airport)
Do you have a better or more recent aerial photo of Medina Municipal Airport that you would like to share? If so, please send us your photo.

 
Sectional chart

 
Airport distance calculator
Flying to Medina Municipal Airport? Find the distance to fly.

From to 1G5

Sunrise and sunset
Times for 02-Jul-2022
 Local
(UTC-4)
 Zulu
(UTC)
Morning civil twilight05:2609:26
Sunrise06:0010:00
Sunset21:0201:02
Evening civil twilight21:3601:36

Current date and time
Zulu (UTC)  02-Jul-2022 23:13:03
Local (UTC-4)  02-Jul-2022 19:13:03
 
METAR
KAKR 
15nm SE 
022254Z AUTO 34007KT 10SM CLR 27/08 A3000 RMK AO2 SLP151 T02670078
KBJJ 
17nm S 
021356Z AUTO 34011KT 10SM CLR 23/14 A3003 RMK AO2 SLP162 T02280144 $
KCLE 
18nm N 
022251Z 30004KT 10SM SCT220 27/09 A2998 RMK AO2 SLP161 T02670089
KCAK 
19nm SE 
022251Z 35004KT 10SM FEW060 SCT160 BKN220 27/09 A3001 RMK AO2 SLP153 T02720089
KLPR 
23nm NW 
022253Z AUTO 28003KT 10SM CLR 26/09 A3001 RMK AO2 SLP155 T02610089
KPOV 
24nm E 
022255Z AUTO 31003KT 10SM CLR 24/05 A3001 RMK AO2 T02410046 PWINO
KBKL 
25nm N 
022253Z 00000KT 10SM CLR 26/09 A2998 RMK AO2 SLP149 T02560094
KCGF 
29nm NE 
022245Z 29007KT 10SM SCT150 25/08 A3000
TAF
KCLE 
18nm N 
022043Z 0221/0324 35008KT P6SM SCT200 FM030000 VRB03KT P6SM BKN150 FM030600 02004KT P6SM SCT250
KCAK 
19nm SE 
021720Z 0218/0318 31007KT P6SM SCT200 FM022300 33007KT P6SM BKN120 FM030800 03005KT P6SM SCT250
NOTAMs
Click for the latest NOTAMs
NOTAMs are issued by the DoD/FAA and will open in a separate window not controlled by AirNav.

 

 
 

FBO, Fuel Providers, and Aircraft Ground Support

  
 Business Name 
 
 Contact 
 
 Services / Description 
 
Fuel Prices
 
Comments
  
Flight Services of Medina 330-239-1606
[web site]
Aviation fuel, Aircraft parking (ramp or tiedown), Flight training, Aircraft rental, Aerial tours / aerial sightseeing, Aerial photography, Aircraft maintenance, ...

More info about Flight Services of Medina
EPIC
100LL Jet A
AS --- $5.50 
SS $7.38 --- 
 Updated 22-Jun-2022
 
   write
AS=Assisted/Self Service
SS=Self service
Update Fuel Prices
 

Would you like to see your business listed on this page?

 If your business provides an interesting product or service to pilots, flight crews, aircraft, or users of the Medina Municipal Airport, you should consider listing it here.  To start the listing process, click on the button below
 
Add a business
 

Other Pages about Medina Municipal Airport

www.medinaoh.org/...
 
Update a link
 
Copyright © AirNav, LLC. All rights reserved. Privacy Policy  Contact